Location: Kumla
(59.1265°N, 15.1401°E)
Time: 03:04:26
(UTC+01:00)

Transit 2A - Pass Details

Date: 05 December 2023
Orbit: 600 x 953 km, 66.7° (Epoch: 24 February)

Event Time Altitude Azimuth Distance (km) Brightness Sun altitude
Rises 17:41:47 0° 247° (WSW) 3,078 10.8 -18.1°
Reaches altitude 10° 17:44:15 10° 252° (WSW) 2,111 9.6 -18.4°
Maximum altitude 17:48:54 54° 330° (NNW) 781 6.1 -18.9°
Enters shadow 17:50:44 32° 31° (NNE) 1,090 6.4 -19.2°
Drops below altitude 10° 17:53:15 10° 48° (NE) 1,982 - -19.5°
Sets 17:55:30 0° 54° (NE) 2,871 - -19.8°
